Torna al catalogo

YAOGAN-31 G

AttivoMilitareLEO
NORAD 47691·PAYLOAD·🇨🇳 China

Lanciato Feb 24, 2021 da Jiuquan Satellite Launch Center

Loading…

Prossimi Passaggi (prossime 24 ore)

TLE

AggiornatoSource: Space-Track

Epoca: Sep 14, 2026, 22:47 UTC

1 47691U 21014A   26257.94992683  .00000000  00000-0  13744-3 0  9999
2 47691  63.4059 327.1555 0184756   0.9599 359.1747 13.45453775272851

Traccia YAOGAN-31 G in tempo reale con AllMySat

Download on the App Store